Voltar ao catálogo

GHGSAT-C4

AtivoCiênciaSSO
NORAD 52746·PAYLOAD·🇨🇦 Canada

Lançado May 25, 2022 de Cape Canaveral Space Force Station

Loading…

Próximas Passagens (próximas 24 horas)

TLE

AtualizadoSource: Space-Track

Época: Sep 14, 2026, 13:51 UTC

1 52746U 22057Q   26257.57733748  .00005756  00000-0  17027-3 0  9999
2 52746  97.6653  45.4603 0006933 138.0508 222.1267 15.35312509239257

Acompanhe GHGSAT-C4 em tempo real com AllMySat

Download on the App Store